GW2722 Weather Reports


time (UTC)temp
C
wind
direction
speed
KPH
gust
KPH
rain 1hr
cm
rain 24hr
cm
rain mn
cm
humidity
%
barometer
mb
20260503190057 15 331 9.7 29.0 0.00 0.00 0.00 38 1017.1
20260503184601 15 351 14.5 32.2 0.00 0.00 0.00 38 1017.5
20260503183114 14 317 11.3 30.6 0.00 0.00 0.00 40 1017.7
20260503181602 14 344 12.9 32.2 0.00 0.00 0.00 40 1018.0
20260503180058 13 325 14.5 27.4 0.00 0.00 0.00 41 1018.0
20260503174606 13 325 8.0 30.6 0.00 0.00 0.00 42 1018.2
20260503173118 13 355 11.3 30.6 0.00 0.00 0.00 40 1018.3
20260503171559 13 288 14.5 22.5 0.00 0.00 0.00 40 1018.6
20260503120124 2 0 0.0 4.8 0.00 0.00 0.00 94 1019.9
20260503100105 -1 0 0.0 0.0 0.00 0.00 0.00 95 1019.0
20260503090105 -1 0 0.0 0.0 0.00 0.00 0.00 94 1019.0
20260503081557 -1 0 0.0 0.0 0.00 0.00 0.00 93 1018.9
20260503071616 0 0 0.0 0.0 0.00 0.00 0.00 93 1018.6
20260503054604 0 0 0.0 0.0 0.00 0.00 0.00 91 1019.3
20260503053056 0 0 0.0 0.0 0.00 0.00 0.00 91 1019.2
20260503051600 0 0 0.0 0.0 0.00 0.00 0.00 91 1019.2
20260503050059 0 0 0.0 0.0 0.00 0.00 0.00 90 1019.2
20260503044603 1 0 0.0 0.0 0.00 0.00 0.00 90 1019.2
20260503043059 1 0 0.0 0.0 0.00 0.00 0.00 89 1019.1
20260503041608 1 0 0.0 0.0 0.00 0.00 0.00 88 1019.2
20260503034613 1 0 0.0 0.0 0.00 0.00 0.00 87 1019.2
20260503033101 2 0 0.0 0.0 0.00 0.00 0.00 86 1019.3
20260503031559 2 0 0.0 0.0 0.00 0.00 0.00 84 1019.4
20260503030100 2 0 0.0 0.0 0.00 0.00 0.00 82 1019.3
20260503024606 3 0 0.0 0.0 0.00 0.00 0.00 82 1019.1
20260503023059 3 0 0.0 0.0 0.00 0.00 0.00 79 1019.1
20260503021600 4 0 0.0 0.0 0.00 0.00 0.00 76 1019.0
20260503020104 5 0 0.0 0.0 0.00 0.00 0.00 73 1018.6
20260503014624 5 0 0.0 0.0 0.00 0.00 0.00 70 1018.5
20260503013057 6 0 0.0 0.0 0.00 0.00 0.00 67 1018.3
20260503011557 6 0 0.0 0.0 0.00 0.00 0.00 65 1018.2
20260503010058 7 0 0.0 0.0 0.00 0.00 0.00 61 1018.0
20260503004603 7 0 0.0 1.6 0.00 0.00 0.00 55 1018.0
20260503003100 8 174 0.0 8.0 0.00 0.00 0.00 55 1017.8
20260503001558 9 0 0.0 4.8 0.00 0.00 0.00 50 1017.7
20260503000100 9 0 0.0 9.7 0.00 0.00 0.00 49 1017.5
20260502234558 10 158 3.2 9.7 0.00 0.00 0.00 47 1017.4
20260502233107 10 119 0.0 11.3 0.00 0.00 0.00 46 1017.4
20260502231607 11 0 3.2 14.5 0.00 0.00 0.00 44 1017.4
20260502230058 11 150 0.0 16.1 0.00 0.00 0.00 42 1017.4
20260502224559 12 150 1.6 9.7 0.00 0.00 0.00 41 1017.3
20260502223100 12 130 1.6 14.5 0.00 0.00 0.00 41 1017.2
20260502221600 12 208 0.0 6.4 0.00 0.00 0.00 42 1017.2
20260502220105 12 0 0.0 11.3 0.00 0.00 0.00 40 1017.2
20260502214557 12 69 3.2 11.3 0.00 0.00 0.00 41 1017.0
20260502213058 12 144 4.8 12.9 0.00 0.00 0.00 41 1017.1
20260502211601 12 0 3.2 11.3 0.00 0.00 0.00 42 1017.0
20260502210107 12 227 0.0 12.9 0.00 0.00 0.00 43 1017.0
20260502204601 12 65 1.6 14.5 0.00 0.00 0.00 40 1017.0
20260502203100 12 86 1.6 9.7 0.00 0.00 0.00 41 1017.1
20260502201603 12 0 3.2 9.7 0.00 0.00 0.00 45 1017.2
20260502200106 12 0 1.6 11.3 0.00 0.00 0.00 43 1017.3
20260502194618 12 0 1.6 14.5 0.00 0.00 0.00 45 1017.3
20260502193109 12 130 3.2 11.3 0.00 0.00 0.00 46 1017.3
20260502191609 12 180 1.6 9.7 0.00 0.00 0.00 43 1017.5